Theta_e
313 318 322 324 326 326 324 324 324 325 329 332 336 350 352 350 353 355 329 334 335 337 341 342 343 343 341 340 337 336 337 339 342 343 343 342 341 341 340 340 341 342 338 340 341 340 339 337 335
315 319 323 324 327 328 327 325 324 332 336 339 340 345 346 346 339 330 332 329 333 332 338 341 342 342 342 341 341 339 337 337 339 345 344 343 341 341 341 341 341 341 341 340 340 339 338 338 335
317 320 323 326 326 325 325 325 328 332 334 336 336 336 336 340 331 325 322 330 332 328 337 338 339 341 341 341 341 341 340 337 336 337 342 344 343 341 340 340 341 342 342 342 343 343 339 337 336
317 322 323 324 327 327 326 326 326 331 328 331 334 336 329 324 326 321 325 328 328 325 323 329 337 338 340 341 341 341 341 341 339 336 336 339 341 342 342 342 342 341 341 341 341 342 341 338 336
318 321 325 326 326 325 324 324 325 327 326 328 333 337 331 321 320 321 323 323 323 321 320 318 320 330 331 337 339 340 341 341 341 341 337 336 336 336 336 337 338 339 340 341 340 339 338 339 337
317 322 323 325 326 326 323 322 324 325 326 327 335 333 329 322 322 321 321 319 318 317 316 316 315 312 313 316 328 334 336 337 338 340 340 339 337 336 335 335 334 335 335 335 335 335 337 337 338
317 320 324 324 324 326 323 323 325 325 328 323 330 331 328 322 320 319 318 316 314 314 313 313 312 311 312 311 308 312 316 323 328 332 333 334 336 338 337 336 336 336 335 335 336 335 336 337 338
317 318 320 322 323 324 321 321 322 324 319 321 322 328 328 321 318 316 315 314 313 312 312 312 312 311 310 310 310 310 310 310 310 311 314 322 330 337 339 339 338 337 337 336 335 336 336 337 338
317 317 320 321 322 322 320 320 321 319 319 319 321 325 322 319 317 316 315 314 313 312 310 310 311 310 310 310 311 311 311 313 313 314 312 309 312 313 320 332 337 338 339 340 339 337 336 336 336
317 319 321 321 320 320 320 320 318 319 319 319 319 318 317 317 317 317 316 314 312 311 310 309 310 310 310 311 310 311 311 312 311 313 312 313 314 313 317 317 320 332 338 338 339 338 337 337 336
318 318 319 319 317 317 318 318 318 319 320 319 318 317 316 316 316 314 313 312 311 310 310 309 309 309 309 310 310 310 310 310 311 311 310 311 313 314 314 315 317 319 324 333 339 339 339 337 337
315 316 316 316 316 315 316 318 317 319 318 318 317 316 316 315 314 313 312 311 311 310 309 308 308 308 308 309 309 309 309 309 310 309 310 310 310 311 312 314 314 316 318 319 327 336 339 339 339
318 317 316 315 315 314 315 315 316 318 316 316 315 315 315 314 312 311 311 310 310 309 308 308 307 307 307 308 308 308 308 308 307 308 309 308 309 309 309 310 312 314 315 317 318 325 332 338 338
316 316 315 315 315 315 314 314 314 316 314 314 313 314 313 313 312 311 310 310 309 308 307 307 306 306 307 306 307 307 307 307 307 307 308 307 307 308 308 309 310 311 313 314 316 317 319 327 331
315 313 314 314 315 314 314 313 314 316 314 313 313 313 312 312 310 310 309 308 307 307 307 306 306 306 305 305 305 306 306 305 305 306 306 306 306 306 306 306 307 308 309 310 311 315 318 321 325
314 315 314 316 316 315 314 313 316 315 314 313 313 313 312 311 310 309 307 307 306 306 306 306 305 305 304 304 304 304 304 304 304 304 303 305 304 303 303 303 303 302 303 304 306 310 315 316 321
316 316 316 317 316 316 314 315 316 316 315 314 314 313 312 312 310 308 307 306 306 305 305 305 304 303 303 303 302 302 303 303 302 302 302 302 301 302 300 299 300 299 301 302 304 307 310 315 316
315 316 317 317 317 316 316 315 316 316 315 315 315 314 313 312 311 307 306 305 305 305 304 304 303 302 302 301 301 301 301 300 301 301 301 300 299 299 297 297 297 299 300 301 302 304 306 307 311
317 316 316 315 315 315 316 316 316 317 316 315 315 314 314 313 308 306 305 305 305 304 304 303 302 301 300 300 299 299 299 299 300 300 297 297 296 295 295 295 295 296 297 299 300 302 304 305 308
315 314 314 313 314 315 315 316 317 317 317 316 315 315 314 312 308 305 305 305 305 304 303 302 302 300 299 298 298 297 298 298 297 295 295 294 293 293 293 293 293 293 294 296 298 301 303 305 306
314 313 313 314 314 314 315 315 316 316 316 317 316 315 315 313 310 306 305 305 305 303 302 302 301 299 298 297 297 296 296 295 294 293 292 292 291 291 291 291 291 291 292 294 295 298 300 302 305
313 312 313 314 314 314 314 315 314 314 314 317 316 315 314 310 307 306 305 305 304 302 301 300 299 298 297 296 296 295 295 294 293 292 291 290 290 290 290 290 289 290 290 292 295 297 299 302 303
312 312 312 312 312 313 312 312 313 314 314 316 315 314 312 309 307 306 304 304 302 301 301 300 299 297 296 296 295 294 293 293 292 291 290 289 289 289 289 288 288 288 289 290 291 293 296 299 303
312 312 312 313 314 316 314 314 315 319 318 317 315 313 311 308 306 304 303 303 302 301 300 299 298 296 295 295 294 293 292 292 291 290 289 288 288 288 288 287 286 287 287 289 291 292 295 297 300
311 312 316 317 317 317 314 314 319 317 316 316 315 313 310 307 305 304 303 302 301 300 298 297 295 295 294 294 292 291 291 290 289 289 288 287 287 287 286 286 285 285 286 287 289 290 291 293 297
311 312 316 314 314 312 311 312 320 315 314 314 314 312 309 307 306 304 301 299 298 298 297 295 293 294 294 293 292 290 289 289 288 287 287 286 287 287 286 285 284 284 284 285 286 287 288 290 291
309 311 310 312 313 315 313 316 317 315 312 311 312 310 309 307 305 302 299 297 296 296 295 293 291 291 292 291 290 289 288 287 287 286 286 285 285 285 285 284 284 284 283 284 284 285 285 287 287
310 310 313 315 315 315 315 315 322 320 318 311 309 309 307 306 305 301 298 295 292 293 293 291 287 288 290 290 288 286 287 286 286 285 284 283 283 283 284 283 283 284 283 284 284 283 283 285 285
310 312 312 312 315 317 318 319 317 320 319 314 311 306 304 304 296 300 296 292 292 292 292 292 288 284 285 288 288 285 284 285 285 285 284 283 281 282 282 282 282 282 283 282 283 283 283 283 283
310 310 310 315 314 317 319 321 319 318 318 317 312 307 303 300 296 293 292 290 290 290 289 289 289 287 285 283 286 287 285 285 284 285 284 283 282 281 281 281 280 281 282 281 281 282 281 281 282
Wind_Speed
20 17 16 14 5 7 16 20 9 9 3 9 11 13 22 19 7 8 5 8 12 15 12 11 9 9 8 7 6 6 6 6 4 2 3 4 5 6 6 6 7 6 6 6 6 5 6 6 5
18 16 16 6 7 11 14 5 3 14 16 11 7 5 13 8 13 6 5 8 14 13 11 10 9 8 7 6 6 6 5 5 5 4 3 4 5 6 8 8 9 9 9 9 8 8 9 8 6
18 13 7 6 10 13 12 9 14 15 10 9 6 16 10 6 10 4 2 8 13 14 10 8 7 7 8 8 7 5 4 4 4 4 3 2 4 6 8 10 11 11 11 11 10 10 10 10 9
9 6 5 8 16 19 4 9 9 10 2 2 16 10 8 14 4 5 7 11 13 14 13 11 8 8 7 6 6 6 5 4 3 3 4 4 4 6 7 11 13 13 13 12 12 12 12 11 11
12 6 9 13 17 17 7 11 5 8 7 2 14 9 7 9 16 12 13 12 11 11 11 12 13 12 12 9 6 6 6 7 5 5 6 7 7 8 10 10 13 14 14 14 14 14 14 13 13
7 10 12 13 18 6 10 5 4 7 8 9 17 11 7 12 13 12 13 12 11 10 10 11 12 14 14 12 11 9 8 7 8 8 8 8 10 11 11 13 14 15 15 16 16 16 16 15 15
11 11 15 18 18 6 9 4 1 4 8 13 11 9 11 14 13 13 13 12 12 11 13 13 13 12 13 13 12 10 10 10 8 8 9 10 10 12 14 15 16 17 18 18 18 18 19 18 17
6 10 15 15 14 8 12 5 7 4 11 8 12 7 10 16 15 15 13 13 13 13 13 13 12 13 14 14 14 15 14 13 13 11 12 8 8 6 10 13 17 20 21 21 22 21 20 20 20
9 5 10 11 14 12 8 7 5 8 14 15 9 17 19 19 16 15 14 11 11 11 13 13 13 13 13 11 13 14 15 14 14 16 15 14 12 12 10 12 16 17 19 22 25 25 23 21 23
5 9 10 8 14 9 8 1 9 6 10 8 11 13 16 17 15 11 9 10 9 10 12 14 14 15 14 11 13 12 13 14 14 15 18 19 17 15 13 15 14 15 19 23 25 28 28 26 26
7 11 11 12 10 13 5 6 5 10 14 16 14 14 14 14 12 10 9 8 7 9 12 14 15 15 15 14 13 12 15 16 16 15 19 18 18 17 18 17 16 17 18 20 21 23 27 33 30
7 13 5 10 7 8 9 11 7 11 7 9 16 15 12 11 8 8 8 8 6 8 9 11 13 14 16 16 14 14 14 15 15 19 18 19 21 21 20 19 20 19 19 20 21 23 23 26 27
14 12 10 7 7 8 11 8 9 11 9 9 10 11 12 10 9 7 9 8 6 7 9 11 12 14 16 15 15 15 14 14 18 16 16 20 20 21 22 22 22 21 22 23 24 23 25 23 27
13 10 14 14 12 10 11 11 12 13 12 10 8 9 8 7 8 9 5 8 6 6 10 11 12 13 15 16 16 16 15 16 15 16 16 17 19 20 21 23 23 23 22 24 26 27 26 25 31
8 13 15 16 16 14 6 13 18 13 15 14 12 10 8 7 5 8 6 6 6 8 9 11 11 13 15 13 14 13 13 15 17 17 17 18 18 19 21 23 22 23 24 26 28 24 25 27 28
16 15 15 16 19 11 5 14 14 21 17 14 13 11 9 7 7 8 5 5 6 8 9 10 11 13 15 15 14 15 15 16 16 17 18 18 18 20 22 22 22 25 29 29 26 25 27 27 27
14 13 15 12 13 10 13 8 8 14 15 15 15 14 12 11 8 9 5 6 6 8 8 10 12 16 17 16 15 15 15 15 16 17 17 19 21 18 21 22 25 27 26 24 24 26 26 26 27
15 16 12 8 8 12 13 12 8 17 15 14 14 13 13 12 11 12 6 7 6 8 9 11 13 16 16 16 16 16 16 17 17 17 17 19 21 21 24 21 22 21 21 22 23 26 27 28 29
12 13 16 17 19 20 17 16 14 12 16 15 14 12 12 12 18 13 8 7 6 8 10 12 13 15 16 17 17 17 18 18 17 17 21 21 22 25 22 21 24 24 23 23 25 25 25 28 25
11 16 18 19 18 17 17 20 15 13 12 19 16 14 14 16 13 11 8 6 5 8 10 12 13 14 15 15 15 17 17 17 17 22 20 22 24 23 22 23 24 23 24 24 24 22 23 23 22
15 15 17 20 19 18 17 23 18 20 23 17 15 13 12 15 11 10 7 6 5 8 8 10 11 12 15 16 16 17 16 17 19 21 21 24 23 23 23 25 24 25 23 23 24 24 24 24 21
17 14 13 15 13 13 13 17 15 18 19 9 14 9 12 14 9 8 7 5 8 8 7 9 9 12 14 17 18 18 17 16 18 20 22 22 23 23 24 24 27 25 24 23 23 23 24 22 21
10 13 12 13 14 15 16 10 18 15 17 10 14 13 12 10 9 9 7 6 7 6 7 8 9 12 13 15 17 17 17 17 17 21 21 23 22 22 24 26 28 27 25 25 25 26 25 24 23
11 11 15 14 12 13 19 16 18 8 6 12 16 16 13 12 8 8 8 6 8 7 7 7 8 11 12 14 15 17 18 19 20 22 22 23 23 23 25 27 28 28 27 26 26 25 25 25 25
12 9 5 5 8 12 19 16 9 11 10 9 14 15 13 11 10 9 10 9 7 6 7 7 10 11 12 13 14 16 18 18 19 21 21 23 24 26 29 29 30 30 26 26 25 23 24 23 22
13 14 9 16 12 14 20 13 4 13 11 11 13 13 12 9 8 8 8 7 7 6 8 8 9 10 12 13 14 15 15 16 17 19 21 22 24 24 28 28 31 31 31 29 26 23 25 23 21
10 12 16 15 15 13 13 16 12 13 10 9 8 11 8 9 8 8 10 8 7 7 9 9 9 9 11 12 13 13 14 15 16 19 20 22 24 24 25 29 32 34 33 31 28 28 30 27 26
15 13 11 8 12 16 14 15 1 1 1 8 7 7 10 4 7 8 11 8 7 3 8 8 9 9 10 11 13 13 14 16 17 20 23 23 22 25 27 28 30 31 34 33 33 31 32 31 32
12 14 14 14 8 12 14 5 3 5 6 8 7 7 7 11 3 5 10 8 7 6 8 7 8 12 10 9 10 13 18 16 16 16 20 24 32 26 26 27 29 30 30 33 32 33 37 35 36
16 17 16 8 15 10 4 6 5 6 4 8 9 11 8 8 7 4 8 7 7 9 7 6 7 7 12 12 8 7 12 19 23 19 18 27 33 35 26 27 30 30 32 33 33 32 34 36 37
Wind_Direction
318 314 304 276 248 232 260 251 84 103 106 29 34 74 92 41 47 97 102 63 62 70 71 70 66 67 71 69 64 51 42 38 34 352 301 270 253 251 232 233 237 236 230 243 255 268 279 281 281
315 309 282 274 253 271 258 116 151 79 90 73 76 158 53 69 56 89 183 46 68 66 72 74 76 60 63 65 63 54 43 33 28 31 340 295 271 258 251 251 248 249 247 251 259 268 268 273 278
298 269 286 232 251 254 281 34 78 76 98 139 87 40 42 63 60 80 49 66 84 63 70 74 83 77 60 47 45 39 35 25 14 2 340 335 319 299 275 267 262 260 261 260 267 269 264 269 270
295 260 240 259 267 265 27 66 65 99 69 6 94 75 85 18 72 108 94 85 82 73 54 60 74 68 61 56 46 33 25 5 343 321 312 298 265 262 271 278 275 269 267 267 269 274 267 268 273
262 265 258 263 264 261 75 42 359 146 140 176 116 73 84 70 107 104 90 86 83 71 68 39 53 62 51 43 38 28 18 9 353 316 294 282 276 265 265 267 277 277 274 269 269 269 267 271 273
282 242 269 263 246 188 90 71 252 258 140 99 96 96 78 125 112 105 95 86 79 71 63 64 38 46 40 38 38 35 24 11 360 345 329 303 289 279 269 267 269 274 278 276 273 269 269 270 270
258 283 272 281 289 123 105 68 283 272 116 37 115 106 132 122 125 115 103 91 78 62 60 46 41 40 45 22 23 30 28 28 18 1 348 345 346 303 282 278 274 272 271 273 274 271 267 266 267
306 294 276 280 298 39 100 105 11 3 72 94 11 162 162 137 138 126 116 98 75 60 42 50 36 30 41 18 12 22 19 13 11 9 349 1 8 333 321 303 290 277 273 270 266 266 267 267 265
287 272 269 268 293 94 116 127 81 99 82 50 55 73 115 144 149 132 126 96 73 57 49 30 34 26 46 21 13 10 11 3 10 360 343 350 338 331 321 292 293 288 279 274 272 268 263 261 264
238 264 290 355 352 23 137 247 137 181 113 112 99 105 131 150 159 151 134 91 70 56 39 30 24 18 29 23 19 5 8 355 4 351 341 352 343 342 330 318 305 312 298 278 273 267 263 257 256
296 286 344 330 30 351 337 204 141 230 185 162 155 145 150 153 146 134 98 84 70 59 40 27 19 14 15 22 10 7 2 349 0 332 356 343 347 338 338 326 325 315 309 295 289 282 270 257 251
298 292 325 304 4 322 301 327 180 69 59 66 133 148 152 153 140 125 110 99 76 62 40 27 20 12 11 23 3 5 356 354 338 354 345 343 335 340 335 333 321 309 313 304 297 292 275 265 253
276 282 312 293 272 274 283 282 286 111 104 101 122 147 156 143 132 110 118 96 72 55 41 25 20 13 8 10 0 356 1 347 343 342 345 335 341 334 331 328 327 321 315 310 302 297 289 288 267
310 296 284 285 272 246 249 265 258 138 146 144 160 162 144 144 146 126 100 80 53 53 39 23 22 13 6 5 354 355 350 342 343 341 338 340 335 333 331 328 326 321 319 314 308 304 297 291 281
280 277 273 261 235 245 246 259 252 162 161 166 180 165 155 142 150 81 72 72 48 47 35 23 19 12 5 2 355 353 345 343 341 340 339 337 336 336 334 326 323 323 324 322 308 300 304 288 284
267 264 268 259 222 204 188 265 16 143 160 174 184 175 171 167 160 116 86 58 39 42 28 24 21 14 5 2 1 353 347 346 343 341 338 338 337 335 333 331 327 321 320 316 309 311 303 297 292
248 252 266 270 171 161 187 262 116 153 176 190 188 185 180 173 173 125 97 59 35 49 32 26 22 15 9 6 1 354 352 349 346 341 340 337 342 338 333 330 315 314 313 311 308 304 302 301 291
276 296 287 287 197 202 234 256 224 175 192 204 200 191 178 181 173 112 85 56 29 41 34 31 25 16 12 6 360 357 355 351 345 344 342 349 345 342 335 328 322 318 319 308 304 304 304 309 307
313 292 289 292 301 305 299 286 255 221 195 203 208 192 186 174 110 110 88 71 26 42 33 33 28 22 17 10 2 357 353 347 349 350 351 352 348 348 344 336 330 324 318 310 305 305 298 298 303
298 289 285 287 283 278 284 285 288 282 249 200 202 194 187 131 127 118 100 80 55 52 38 36 32 27 20 12 7 2 351 355 359 357 354 351 351 349 345 342 335 330 323 314 306 304 306 289 288
280 281 285 288 298 299 305 288 277 264 249 236 186 193 181 142 141 122 122 105 90 63 47 46 44 36 26 18 15 10 8 7 4 0 355 350 350 350 348 344 339 332 325 311 306 301 291 289 289
278 284 324 316 312 286 297 293 290 288 283 133 161 150 106 99 85 107 128 114 92 82 66 52 50 42 30 25 23 20 15 11 4 360 352 353 350 351 348 347 346 337 332 321 313 304 295 291 282
297 318 307 298 289 291 271 265 286 278 278 195 144 123 118 129 138 133 125 115 101 88 78 54 48 46 34 32 32 26 21 14 7 3 0 356 352 353 353 351 349 347 339 330 324 314 304 293 286
298 287 280 267 262 260 271 255 269 310 26 119 139 140 144 129 127 120 121 146 111 86 60 48 39 46 37 36 34 31 25 17 14 8 3 358 356 355 356 357 357 355 347 340 331 319 307 294 285
246 258 276 261 249 259 263 276 46 89 51 86 130 133 133 138 142 153 163 137 84 66 58 42 40 43 41 39 36 32 29 23 17 12 4 1 359 359 1 4 5 4 357 355 351 345 339 327 320
278 233 237 280 300 304 310 294 23 75 51 45 86 118 130 147 135 122 101 95 87 77 61 48 45 38 40 39 36 33 30 28 21 16 10 6 2 4 5 8 10 11 11 9 9 7 359 352 342
269 261 261 275 276 280 274 274 102 93 68 29 102 130 121 132 140 129 119 107 100 74 70 58 55 42 42 43 43 38 35 29 26 24 18 14 11 10 10 15 16 18 16 13 17 16 11 8 6
247 274 292 284 282 271 275 294 97 232 260 180 179 172 158 142 148 142 123 115 88 92 91 78 62 53 46 51 48 42 38 37 38 35 30 24 18 17 18 17 20 20 19 17 22 22 18 20 17
279 231 239 261 273 280 276 283 48 11 198 195 182 191 179 172 87 112 126 119 124 89 93 89 66 60 65 60 60 51 53 48 44 41 35 36 35 25 23 22 20 23 18 21 25 25 23 22 23
281 277 282 272 272 268 280 267 158 173 258 176 198 195 182 147 149 95 70 114 124 109 95 96 88 75 62 64 77 65 48 49 44 39 42 39 36 36 32 28 25 23 27 24 27 25 25 25 23